Whitecourt,

10:05 PM MDT on August 20, 2017 (GMT -0600)
Whitecourt

Weather History for CYZU - October, 2012

Change the Weather History Date:

Sunday, October 28, 2012

  Actual Average Record
Temperature  
Mean Temperature 18 °F -  
Max Temperature 22 °F 38 °F 50 °F (1998)
Min Temperature 15 °F 23 °F 10 °F (1996)
Degree Days  
Heating Degree Days 46    
Moisture  
Dew Point 16 °F    
Average Humidity 90    
Maximum Humidity 93    
Minimum Humidity 82    
Precipitation  
Precipitation 0.08 in - - ()
Sea Level Pressure  
Sea Level Pressure 29.93 in    
Wind  
Wind Speed 6 mph ()    
Max Wind Speed 14 mph    
Max Gust Speed -    
Visibility 4.0 miles    
Events Snow    
Averages and records for this station are not official NWS values.
T = Trace of Precipitation, MM = Missing Value Source: Averaged Metar Reports

Daily Weather History Graph

Daily Weather History Graph

Search for Another Location

Airport or City:

Trip Planner

Search our weather history database for the weather conditions in past years. The results will help you decide how hot, cold, wet, or windy it might be!

Date:

Astronomy

Oct. 28, 2012 Rise Set
Actual Time 8:37 AM MDT 6:15 PM MDT
Civil Twilight 8:00 AM MDT 6:52 PM MDT
Nautical Twilight 7:18 AM MDT 7:34 PM MDT
Astronomical Twilight 6:37 AM MDT 8:15 PM MDT
Moon 5:35 PM MDT (10/28) 7:31 AM MDT (10/28)
Length of Visible Light 10h 52m
Length of Day
9h 37m
Waxing Gibbous, 99% of the Moon is Illuminated
Oct 28
Waxing Gibbous
Oct 29
Full
Nov 6
Last Quarter
Nov 13
New
Nov 20
First Quarter

Hourly Weather History & Observations

Time (MDT) Temp. Windchill Dew Point Humidity Pressure Visibility Wind Dir Wind Speed Gust Speed Precip Events Conditions
6:00 AM 19 °F - 18 °F 92% 29.90 in 1 mi East 9.2 mph - - Snow Light Snow
6:00 AM 19.4 °F 8.6 °F 17.6 °F 93% 29.90 in 1.5 mi East 9.2 mph - N/A Snow Light Snow
7:00 AM 19.4 °F 9.5 °F 17.6 °F 93% 29.89 in 4.0 mi East 8.1 mph - N/A Snow Light Snow
8:00 AM 19.4 °F 7.2 °F 17.6 °F 93% 29.87 in 3.0 mi East 11.5 mph - N/A Snow Light Snow
8:45 AM - - - N/A% - 2.5 mi East 9.2 mph - N/A   Unknown
9:00 AM 19.4 °F 8.6 °F 17.6 °F 93% 29.86 in 2.5 mi East 9.2 mph - N/A Snow Light Snow
10:00 AM 19.4 °F 10.4 °F 17.6 °F 93% 29.86 in 1.5 mi East 6.9 mph - N/A Snow Light Snow
10:14 AM - - - N/A% - 1.0 mi East 5.8 mph - N/A   Unknown
10:41 AM - - - N/A% - 2.0 mi East 6.9 mph - N/A   Unknown
11:00 AM 19.4 °F 11.5 °F 17.6 °F 93% 29.86 in 2.5 mi East 5.8 mph - N/A Snow Light Snow
12:00 PM 20 °F - 18 °F 88% 29.87 in 2 mi NNE 3.5 mph - - Snow Light Snow
12:00 PM 19.4 °F 14.3 °F 17.6 °F 93% 29.87 in 2.0 mi NNE 3.5 mph - N/A Snow Light Snow
12:12 PM - - - N/A% - 1.0 mi NNE 3.5 mph - N/A   Unknown
12:24 PM - - - N/A% - 0.5 mi Calm Calm - N/A   Unknown
12:46 PM - - - N/A% - 0.8 mi Calm Calm - N/A   Unknown
1:00 PM 21.2 °F - 19.4 °F 93% 29.87 in 0.8 mi Calm Calm - N/A Snow Light Snow
1:09 PM - - - N/A% - 1.0 mi North 2.3 mph - N/A   Unknown
1:27 PM - - - N/A% - 0.8 mi Calm Calm - N/A   Unknown
1:37 PM - - - N/A% - 1.0 mi North 2.3 mph - N/A   Unknown
2:00 PM 21.2 °F - 19.4 °F 93% 29.90 in 1.0 mi NW 2.3 mph - N/A Snow Light Snow
3:00 PM 21.2 °F 8.3 °F 19.4 °F 93% 29.92 in 1.5 mi West 13.8 mph - N/A Snow Light Snow
4:00 PM 19.4 °F 10.4 °F 15.8 °F 86% 29.95 in 1.5 mi WNW 6.9 mph - N/A Snow Light Snow
4:10 PM - - - N/A% - 3.0 mi WNW 8.1 mph - N/A   Unknown
4:52 PM - - - N/A% - 2.0 mi West 13.8 mph - N/A   Unknown
5:00 PM 17.6 °F 5.7 °F 14.0 °F 86% 29.99 in 4.0 mi WNW 10.4 mph - N/A Snow Light Snow
6:00 PM 17 °F - 14 °F 82% 30.00 in 15 mi West 5.8 mph - - Snow Light Snow
6:00 PM 17.6 °F 9.3 °F 14.0 °F 86% 30.00 in 15.0 mi West 5.8 mph - N/A   Overcast
7:00 PM 15.8 °F 5.1 °F 12.2 °F 86% 30.03 in 15.0 mi WNW 8.1 mph - N/A   Overcast
9:00 PM 15.8 °F 6.1 °F 12.2 °F 86% 30.07 in 15.0 mi NW 6.9 mph - N/A   Overcast
10:00 PM 15.8 °F 8.6 °F 12.2 °F 86% 30.07 in 15.0 mi NW 4.6 mph - N/A   Overcast